Location: ???????
(55.4362°N, 38.1183°E)
Time: 03:46:27
(UTC+00:00)

Lacrosse 4 Rocket - Pass Details

Date: 17 June 2021
Orbit: 543 x 614 km, 68.0° (Epoch: 26 July)

Event Time Altitude Azimuth Distance (km) Brightness Sun altitude
Rises 23:22:12 0° 319° (NW) 2,767 5.2 -7.5°
Reaches altitude 10° 23:24:26 10° 317° (NW) 1,856 4.3 -7.4°
Maximum altitude 23:28:34 74° 233° (SW) 580 1.3 -7.1°
Drops below altitude 10° 23:32:37 10° 149° (SSE) 1,815 3.7 -6.8°
Sets 23:34:47 0° 147° (SSE) 2,700 4.6 -6.7°
